Wind_Speed
21 25 28 30 32 34 36 38 39 40 41 41 41 39 38 40 40 39 39 40 36 30 26 25 25 24 23 20 20 21 21 21 20 18 18 18 19 19 18 16 15 15 14 17
17 22 25 28 31 33 36 38 40 41 42 42 41 39 38 40 40 40 40 38 33 31 31 32 30 28 26 22 20 21 23 24 24 23 22 23 21 19 17 15 16 16 17 20
15 18 21 25 28 32 35 38 41 43 44 43 42 39 35 37 39 39 38 39 39 37 37 37 35 31 27 25 23 23 25 25 25 24 23 20 16 14 14 15 17 19 21 23
9 12 15 19 22 26 29 32 37 41 43 43 42 40 33 35 36 36 35 36 38 38 39 39 37 33 31 30 28 27 27 25 25 25 22 18 14 13 14 17 20 22 23 25
12 15 18 22 26 29 30 29 29 30 34 37 37 37 32 33 33 31 30 29 30 33 36 38 37 34 33 31 30 30 27 24 23 22 21 18 17 16 18 19 22 24 24 25
17 21 25 28 32 34 34 33 29 26 26 27 28 29 28 30 30 29 28 26 26 26 31 36 38 37 37 34 33 33 26 22 20 19 17 17 17 19 20 21 22 25 25 24
20 24 30 34 37 38 38 35 32 29 26 23 20 21 22 23 25 26 28 27 25 23 23 28 35 39 39 39 38 33 26 21 16 14 15 16 17 20 21 22 23 24 25 24
25 28 33 38 43 45 42 38 34 32 28 23 18 20 18 17 17 17 19 22 22 21 20 22 27 34 37 39 37 31 21 14 10 11 15 16 19 20 21 23 24 25 25 25
33 35 39 45 48 48 44 38 34 33 30 25 22 22 22 20 18 15 14 16 19 20 21 20 23 28 31 32 28 22 12 7 8 12 16 18 19 21 23 24 24 25 25 24
42 46 49 51 49 46 43 36 29 29 28 24 21 20 21 24 22 17 16 17 19 20 20 21 25 27 25 24 19 13 7 7 11 15 18 19 20 22 24 25 25 25 24 24
49 53 53 49 41 33 28 26 26 26 25 22 20 20 19 21 23 21 18 17 18 18 20 20 20 19 16 15 13 8 7 9 13 16 18 20 22 23 24 25 26 26 26 25
50 50 44 34 25 17 14 16 21 24 22 22 19 17 18 16 17 22 20 17 15 15 14 13 12 7 5 4 4 5 6 10 14 18 22 25 26 25 25 24 25 25 26 25
45 38 30 20 11 6 4 6 11 14 14 17 17 14 9 10 8 11 12 10 10 11 12 12 11 7 2 3 4 6 10 14 17 20 23 25 26 24 21 20 20 20 22 22
36 29 22 13 5 6 7 5 5 5 8 12 12 9 6 7 7 9 10 11 11 13 14 10 5 3 4 5 6 10 14 17 18 19 21 21 22 19 17 18 20 19 19 19
26 20 14 9 9 10 11 12 9 8 9 11 8 4 5 9 12 14 16 16 15 14 13 9 5 6 8 9 9 11 15 18 19 20 20 22 20 17 16 18 20 20 20 20
21 17 13 12 13 13 14 13 11 9 8 8 7 5 4 3 7 10 13 15 18 17 16 14 12 12 14 15 14 15 17 19 20 21 20 20 19 17 17 18 19 19 19 20
23 21 17 16 16 16 17 17 15 14 13 12 11 12 11 7 3 4 9 11 13 16 19 21 19 16 16 17 18 19 19 19 19 18 18 18 19 19 19 20 20 21 21 20
28 26 24 23 22 20 20 20 20 19 17 14 13 13 13 11 8 7 5 4 6 8 10 12 13 13 14 16 17 18 17 16 16 17 18 19 20 20 20 20 20 21 22 23
32 30 27 25 23 23 21 20 20 21 20 17 13 12 13 13 11 11 10 8 8 8 5 4 5 7 8 9 11 12 14 15 16 18 19 20 21 21 20 19 19 21 23 22
30 29 27 25 23 23 21 17 16 17 18 17 13 11 12 13 13 13 12 9 8 9 7 4 2 2 4 6 9 12 14 15 16 17 19 21 21 20 19 19 21 22 22 21
26 26 25 24 22 21 19 16 13 13 15 15 13 11 14 16 15 15 14 11 9 8 6 3 2 3 6 9 12 14 15 16 17 18 19 20 19 19 20 20 20 20 20 19
22 23 23 21 19 17 15 13 12 12 14 14 14 14 15 16 15 14 12 10 8 7 6 6 7 9 11 13 14 15 16 15 16 17 17 17 17 18 19 18 17 17 17 17
20 19 19 17 15 14 12 11 10 10 10 11 12 13 13 13 13 12 12 10 10 10 11 11 12 12 13 13 14 15 16 16 17 17 16 16 17 18 18 17 16 16 17 18
22 19 16 14 11 8 7 7 7 7 6 6 7 9 10 10 10 10 10 9 10 12 13 13 13 13 14 14 15 16 17 18 18 17 17 17 18 18 18 17 16 17 18 18
25 22 19 15 11 7 3 1 2 4 4 4 5 5 6 7 7 7 7 8 9 12 13 12 13 14 14 15 15 16 17 17 16 15 16 16 17 17 16 15 15 15 16 17
26 26 24 20 16 10 6 2 2 3 3 4 4 4 3 3 4 5 6 7 9 11 12 13 14 14 14 15 17 18 17 15 14 14 14 14 15 15 15 14 13 14 15 15
Wind_Direction
260 260 262 264 267 268 268 268 267 267 267 267 266 266 267 269 272 273 277 278 269 260 264 277 282 279 274 273 273 274 273 270 267 266 269 277 285 290 292 290 288 293 286 285
261 262 265 266 268 270 271 269 267 267 267 267 266 265 266 267 270 270 274 269 260 264 275 285 283 274 270 269 270 271 271 269 268 270 274 278 281 285 290 291 290 293 292 290
268 271 272 274 275 276 276 272 269 268 268 268 267 264 262 263 265 267 267 261 263 268 275 282 282 273 266 263 265 268 270 268 268 271 275 279 281 283 288 291 293 293 291 289
297 299 296 295 295 293 288 280 274 269 268 266 265 263 257 258 261 263 264 264 266 267 270 276 274 266 257 254 259 263 264 266 269 273 278 282 282 285 291 293 292 291 290 289
312 311 312 312 311 308 306 299 287 278 274 270 265 263 259 255 255 258 260 261 262 258 262 267 261 254 248 244 248 253 253 258 266 274 279 281 284 292 295 295 295 295 293 291
315 312 311 311 308 307 305 301 294 285 281 277 268 263 258 252 250 248 246 246 251 252 256 257 248 243 241 238 243 245 243 249 257 266 272 279 288 294 297 297 296 295 294 290
310 309 307 306 303 301 299 297 291 285 278 277 266 256 252 253 251 246 241 240 246 250 253 248 243 238 237 240 241 236 232 239 248 260 273 282 290 295 297 296 294 293 292 289
305 302 302 299 297 294 292 288 281 277 272 265 253 242 238 238 239 238 237 234 233 237 241 239 236 235 237 242 238 224 220 225 242 267 279 286 292 295 296 294 291 289 289 291
303 300 298 295 295 293 290 282 274 266 264 260 250 241 237 238 237 234 232 228 228 230 234 237 239 237 238 240 232 219 209 224 257 273 279 283 288 289 288 286 286 286 289 292
306 304 302 298 295 292 286 279 264 254 255 253 246 242 242 240 234 233 237 233 230 231 235 240 240 240 234 224 216 203 208 249 270 277 281 287 288 285 284 283 283 284 285 286
309 307 306 303 300 292 279 266 251 244 245 249 246 248 251 247 242 241 241 237 232 231 232 235 242 230 210 197 198 205 231 257 272 277 280 282 281 281 284 286 284 281 279 278
312 311 312 311 307 299 282 256 243 240 244 242 244 253 255 251 243 234 233 238 236 237 247 259 260 234 171 167 201 226 253 271 278 280 281 283 286 287 289 289 290 287 282 276
320 322 324 322 315 308 297 258 237 232 236 230 235 242 243 248 225 206 217 236 245 258 271 284 298 293 261 192 210 256 269 274 277 281 286 290 291 290 289 294 296 294 288 278
330 334 341 354 41 88 82 94 158 177 171 189 201 209 220 253 267 254 246 246 249 260 265 265 267 242 222 219 247 265 271 273 278 289 295 299 300 294 291 297 299 294 288 278
343 352 7 38 66 74 80 97 121 146 151 166 175 209 265 273 266 260 255 247 240 241 249 252 257 261 252 254 261 271 278 280 291 304 301 301 307 305 301 300 300 295 284 278
6 22 45 65 71 79 87 96 113 133 134 131 116 80 33 322 273 261 253 246 238 235 238 250 265 276 271 269 272 277 283 288 298 303 303 307 313 312 309 305 302 297 293 286
35 46 64 75 77 80 79 85 95 101 103 101 94 79 65 49 30 256 242 237 233 236 241 246 254 260 263 268 273 278 286 292 297 301 304 308 307 306 307 305 303 303 302 298
53 59 71 73 69 65 71 83 88 90 90 93 96 96 73 58 63 79 101 156 182 204 224 235 241 251 263 272 276 281 286 292 296 298 301 305 307 307 306 303 302 303 302 298
60 66 69 67 62 60 68 83 88 84 80 79 92 101 82 69 62 65 72 91 119 134 158 200 235 256 268 272 274 278 285 293 299 303 307 309 309 308 306 304 303 304 303 298
63 66 68 66 61 61 69 76 81 71 59 57 73 97 93 88 75 69 70 75 90 100 108 120 157 229 253 266 277 287 295 302 307 309 311 312 311 310 309 308 308 308 306 300
62 63 64 62 61 63 66 68 66 59 47 50 65 89 95 92 87 84 81 73 72 75 74 60 358 311 303 305 306 305 305 307 308 311 313 314 316 316 316 314 312 311 309 303
59 60 60 60 63 65 66 63 59 56 52 62 77 89 95 93 88 81 72 61 49 40 24 359 337 325 320 317 313 308 305 305 307 308 312 316 320 321 319 316 314 314 315 312
55 55 56 56 60 62 62 57 56 56 62 74 90 99 102 97 86 74 62 46 28 14 3 350 338 331 327 324 319 316 313 310 309 307 309 314 317 317 316 312 311 314 317 316
47 46 46 46 45 47 55 54 54 62 80 95 103 106 105 92 77 65 54 39 18 3 354 349 346 343 340 336 333 330 326 321 316 313 313 314 317 319 318 315 312 314 316 317
39 34 30 27 20 10 355 13 75 90 91 106 124 122 108 90 68 52 41 23 6 358 358 1 359 354 350 348 347 343 337 329 325 322 320 321 324 327 327 324 322 322 322 320
33 33 29 23 13 359 345 297 210 166 122 109 129 158 149 110 67 38 22 7 359 0 3 2 359 357 355 353 354 353 352 350 348 346 346 345 345 344 343 340 337 335 332 331
Height
5857 5859 5858 5858 5856 5855 5854 5852 5851 5850 5850 5851 5852 5853 5855 5854 5854 5855 5854 5854 5854 5855 5857 5859 5860 5861 5862 5863 5863 5863 5863 5863 5863 5862 5862 5862 5861 5860 5859 5857 5856 5855 5854 5853
5853 5852 5852 5850 5849 5847 5845 5843 5841 5840 5839 5839 5841 5843 5845 5844 5844 5845 5846 5846 5846 5848 5849 5850 5853 5854 5855 5857 5857 5857 5857 5857 5857 5857 5857 5857 5856 5855 5854 5853 5851 5850 5849 5848
5848 5847 5846 5844 5842 5839 5837 5834 5832 5830 5828 5827 5828 5832 5835 5834 5833 5834 5836 5838 5838 5840 5841 5842 5844 5846 5847 5849 5850 5851 5851 5851 5851 5851 5851 5851 5850 5849 5849 5847 5846 5844 5843 5841
5844 5842 5840 5837 5834 5830 5827 5824 5821 5818 5817 5816 5817 5819 5826 5824 5824 5825 5827 5828 5829 5831 5832 5835 5836 5838 5840 5842 5842 5843 5843 5844 5845 5846 5846 5846 5845 5845 5843 5842 5840 5838 5836 5835
5840 5837 5833 5829 5825 5821 5817 5813 5810 5808 5807 5806 5806 5808 5815 5813 5814 5815 5816 5818 5820 5823 5825 5827 5828 5830 5831 5831 5833 5834 5835 5836 5839 5840 5841 5841 5840 5839 5838 5836 5833 5831 5829 5827
5834 5829 5825 5820 5815 5810 5806 5803 5801 5800 5799 5799 5798 5800 5800 5799 5801 5804 5806 5808 5812 5815 5818 5819 5821 5822 5823 5822 5824 5825 5826 5829 5832 5834 5835 5835 5834 5833 5831 5829 5826 5823 5821 5820
5829 5823 5817 5811 5805 5800 5796 5794 5792 5791 5792 5792 5792 5792 5791 5792 5794 5796 5798 5802 5805 5808 5809 5810 5812 5814 5815 5814 5815 5817 5819 5822 5826 5829 5830 5829 5828 5827 5825 5822 5819 5816 5814 5813
5822 5818 5810 5801 5794 5789 5787 5785 5784 5783 5783 5785 5785 5786 5787 5787 5789 5790 5793 5796 5798 5800 5802 5803 5804 5805 5807 5807 5807 5809 5814 5818 5822 5824 5824 5823 5822 5820 5818 5815 5812 5809 5807 5806
5811 5807 5800 5790 5781 5775 5772 5772 5773 5774 5774 5776 5778 5780 5782 5782 5784 5785 5787 5790 5792 5793 5795 5796 5796 5797 5799 5801 5802 5805 5810 5815 5818 5818 5817 5816 5815 5814 5811 5809 5806 5803 5802 5800
5798 5790 5783 5774 5768 5760 5756 5757 5761 5763 5766 5768 5772 5774 5776 5777 5778 5780 5781 5784 5786 5787 5789 5790 5790 5790 5791 5794 5798 5801 5807 5811 5812 5812 5811 5810 5809 5808 5805 5802 5799 5797 5796 5794
5785 5774 5764 5755 5749 5746 5745 5746 5749 5754 5758 5762 5766 5770 5770 5771 5772 5775 5778 5779 5781 5783 5785 5786 5786 5785 5787 5791 5796 5800 5803 5806 5807 5806 5806 5805 5803 5801 5799 5796 5793 5791 5790 5788
5772 5761 5750 5742 5738 5737 5738 5739 5743 5749 5753 5757 5762 5767 5766 5767 5768 5770 5773 5776 5778 5779 5781 5781 5783 5785 5789 5793 5796 5799 5801 5801 5801 5800 5799 5797 5795 5793 5790 5788 5786 5784 5783 5781
5759 5749 5741 5737 5737 5736 5736 5737 5740 5745 5749 5753 5758 5764 5763 5764 5764 5766 5770 5773 5775 5777 5779 5781 5782 5784 5788 5791 5794 5796 5796 5795 5794 5793 5792 5790 5787 5785 5783 5782 5780 5778 5776 5774
5751 5743 5737 5734 5733 5734 5735 5737 5739 5743 5746 5750 5755 5759 5761 5762 5762 5764 5767 5770 5772 5774 5776 5779 5782 5784 5786 5788 5791 5792 5791 5790 5788 5788 5786 5784 5782 5780 5778 5776 5775 5773 5771 5770
5750 5743 5737 5735 5735 5735 5736 5737 5741 5744 5747 5751 5755 5758 5760 5760 5760 5761 5762 5766 5770 5772 5774 5776 5780 5782 5784 5786 5787 5787 5787 5785 5783 5782 5780 5777 5776 5775 5773 5771 5769 5767 5766 5765
5750 5745 5741 5740 5740 5740 5741 5742 5744 5747 5750 5754 5757 5760 5759 5758 5758 5758 5759 5762 5766 5770 5773 5774 5776 5778 5779 5780 5781 5782 5782 5781 5780 5778 5776 5774 5772 5771 5769 5767 5765 5763 5761 5760
5753 5749 5748 5748 5747 5748 5749 5749 5751 5753 5755 5758 5759 5761 5760 5759 5758 5757 5757 5759 5763 5767 5770 5772 5774 5775 5775 5775 5776 5777 5777 5777 5775 5774 5772 5771 5769 5768 5766 5763 5761 5759 5757 5755
5760 5757 5757 5757 5758 5757 5759 5757 5758 5759 5760 5761 5761 5762 5761 5760 5759 5759 5759 5759 5762 5765 5767 5769 5771 5772 5772 5772 5773 5773 5773 5773 5772 5770 5769 5768 5766 5764 5761 5759 5756 5753 5751 5749
5769 5767 5766 5766 5766 5765 5765 5764 5765 5765 5765 5765 5764 5764 5764 5764 5764 5764 5764 5764 5765 5766 5768 5770 5771 5772 5772 5772 5772 5771 5770 5770 5768 5767 5765 5763 5760 5758 5755 5752 5750 5747 5745 5742
5778 5776 5775 5774 5773 5771 5772 5771 5770 5771 5769 5768 5768 5767 5767 5767 5769 5770 5769 5770 5770 5770 5771 5771 5772 5772 5773 5773 5772 5770 5769 5767 5765 5763 5760 5757 5755 5752 5749 5746 5744 5741 5738 5736
5787 5784 5782 5780 5778 5777 5777 5776 5775 5775 5775 5772 5771 5771 5771 5772 5773 5774 5774 5775 5775 5774 5774 5774 5773 5773 5772 5771 5770 5768 5766 5764 5762 5759 5756 5753 5750 5747 5744 5741 5739 5736 5733 5731
5793 5790 5788 5786 5784 5784 5781 5780 5779 5779 5777 5776 5775 5775 5776 5776 5777 5777 5778 5777 5777 5777 5776 5775 5774 5772 5770 5769 5767 5765 5763 5761 5759 5756 5753 5750 5747 5744 5741 5738 5735 5732 5729 5726
5799 5797 5793 5792 5790 5787 5784 5782 5781 5780 5780 5779 5779 5779 5779 5778 5778 5778 5778 5778 5777 5777 5776 5774 5773 5771 5769 5767 5765 5763 5760 5758 5755 5753 5750 5747 5744 5741 5737 5734 5731 5728 5725 5723
5804 5801 5798 5794 5792 5789 5787 5785 5783 5781 5781 5781 5781 5781 5780 5780 5779 5779 5778 5778 5778 5777 5776 5774 5772 5770 5768 5766 5763 5760 5757 5754 5752 5749 5746 5743 5740 5736 5733 5729 5727 5724 5721 5718
5808 5804 5800 5797 5794 5790 5788 5785 5784 5783 5782 5781 5781 5781 5781 5781 5782 5781 5780 5780 5779 5778 5776 5774 5772 5769 5767 5764 5762 5758 5755 5752 5748 5746 5742 5739 5736 5732 5729 5726 5723 5720 5718 5715
5811 5807 5802 5798 5794 5791 5788 5785 5784 5784 5783 5782 5782 5782 5782 5782 5782 5782 5781 5781 5779 5778 5776 5774 5771 5769 5766 5763 5760 5756 5753 5749 5746 5743 5740 5736 5733 5729 5726 5723 5720 5717 5714 5711